Погода в Темире

Погода в Темире : погода сейчас, прогноз погоды и архив. Всё, что Вы хотите узнать о погоде в Темире!

Хотите узнать прогноз погоды в Темире? Тогда Вам сюда: Погода в Темире

Поиск расширенной информации на нашем сайте:

Полезная информация: Садовые домики дешевле - строительство садовых домиков. Срубы, срубы, срубы.
матрасы ватные СПб

Другие новости

Новости СМИ2

Главная страница сайта

Новости сайта

03.07.2017

Напоминаем, что на нашем специализированном сайте Метеоцентр.Азия вы можете получить высокодетализированные автоматические прогнозы погоды по пунктам России, СНГ и мира в авиационном формате (включающие направление и скорость ветра, видимость, явления погоды, количество и форму облачности, нижнюю и верхнюю границу облачности).

Рекомендуем: кованые лестничные ограждения

Погода в Темире - сегодня

Время (UTC), дата Ветер
(°,м/с) 
Видим.   Явления Облачность Т
(°С)
Тd
(°С)
f(%) Тe
(°С)
Pmin
(гПа)
dP
(гПа)
Po
(мм)
O2
(г/м3)
Тmin Tmax R s Состояние
почвы
18 13.12.17 060 (СВ) н/о    ясно 
-16.8 -19.6 79 -19  1041  0.1  757  327    -9.7       
21 13.12.17 070 (В) н/о    ясно 
-18.1 -20.9 79 -21  1040.6  -0.6  757  328           
00 14.12.17 060 (СВ) н/о    ясно 
-18.9 -21.8 78 -19  1041.5  0.8  757  329           
03 14.12.17 070 (В) н/о    ясно 
-20.4 -23.4 77 -23  1042.1  0.4  757  332        равномерный
сухой снег
100% 
06 14.12.17 070 (В) 20000 м    4/0 средняя, верхняя 
[Ac trans|Ci fib]
-18.6 -22.1 74 -21  1042.7  0.8  758  329  -20.4         
09 14.12.17 060 (СВ) 20000 м    6/0 средняя, верхняя 
[Ac trans|Ci fib]
-13.8 -18.8 66 -17  1042  758  323           
12 14.12.17 070 (В) 20000 м    4/0 верхняя 
[Ci fib]
-13.1 -17.3 71 -17  1041.2  -0.8  757  322           
15 14.12.17 060 (СВ) н/о    3/0 верхняя 
[Ci fib]
-16.6 -19.5 78 -19  1041.9  0.3  758  327    -12.2       
18 14.12.17 070 (В) н/о    3/0 верхняя 
[Ci fib]
-17.5 -19.7 83 -20  1041.8  -0.2  758  328    -12.2       
21 14.12.17 070 (В) н/о    4/0 средняя, верхняя 
[Ac trans|Ci fib]
-16.9 -19.1 83 -21  1041.5  -0.2  757  327           
00 15.12.17 060 (СВ) н/о    4/0 средняя, верхняя 
[Ac trans|Ci fib]
-16.7 -18.9 83 -19  1041.2  -0.3  757  326           
03 15.12.17 060 (СВ) н/о    3/0 средняя, верхняя 
[Ac trans|Ci fib]
-17.1 -19.9 79 -21  1041.2  -0.1  757  327  -17.6      равномерный
сухой снег
100% 
06 15.12.17 070 (В) 20000 м    4/0 верхняя 
[Ci fib]
-13.4 -18.6 65 -18  1041.4  0.7  758  322  -17.6         
09 15.12.17 080 (В) 20000 м    4/0 верхняя 
[Ci fib]
-9.5 -15.9 60 -13  1040  -0.9  757  317           
12 15.12.17 070 (В) 20000 м    6/0 верхняя 
[Ci fib]
-9.6 -15.4 63 -11  1040.5  0.4  757  318           
15 15.12.17 080 (В) н/о    4/0 верхняя 
[Ci fib]
-12.8 -17.1 70 -16  1040.7  -0.1  757  322    -9       
18 15.12.17 050 (СВ) н/о    4/0 верхняя 
[Ci fib]
-16.1 -19.5 75 -18  1041.2  0.1  757  326    -9       
21 15.12.17 050 (СВ) н/о    3/0 верхняя 
[Ci fib]
-17.9 -20.8 78 -22  1041.4  757  328           
00 16.12.17 050 (СВ) н/о    4/0 верхняя 
[Ci fib]
-18.1 -21 78 -22  1041.6  0.1  757  328           
03 16.12.17 040 (СВ) н/о    6/0 средняя, верхняя 
[Ac trans|Ci fib]
-16.1 -19.2 77 -18  1041.3  757  326  -18.3      равномерный
сухой снег
100% 
06 16.12.17 070 (В) 20000 м    3/0 верхняя 
[Ci fib]
-14.8 -19.1 70 -18  1041.2  757  324  -18.3         
09 16.12.17 080 (В) 20000 м    1/0 верхняя 
[Ci fib]
-9.7 -16.8 56 -11  1039.8  -0.7  757  318           
12 16.12.17 060 (СВ) 20000 м    3/0 верхняя 
[Ci fib]
-10.4 -16.1 63 -12  1040.2  0.3  757  318           
15 16.12.17 040 (СВ) н/о    1/0 верхняя 
[Ci fib]
-14.9 -19.3 69 -15  1041.3  0.5  757  324    -8.9       
18 16.12.17 060 (СВ) н/о    ясно 
-16.4 -20.8 69 -20  1041.3  -0.2  757  326    -8.9       
Время (UTC), дата Ветер
(°,м/с) 
Видим.   Явления Облачность Т
(°С)
Тd
(°С)
f(%) Тe
(°С)
Pmin
(гПа)
dP
(гПа)
Po
(мм)
O2
(г/м3)
Тmin Tmax R s Состояние
почвы

Для получения пояснительной информации подведите курсор к названию столбца.

ПОГОДА в Темире - архив

Всё, что Вы хотите узнать о погоде в Темире - удобно и подробно!

Выберите нужную дату (начиная с 1 января 2015* года) и нажмите кнопку "Найти".
Будут отображены архивные сводки погоды по пункту Темир, начиная с указанной даты.


Отображать данные в формате CSV (для использования в таблицах Excel)


Внимание! Наш архив погоды предназначен исключительно для личного некоммерческого использования в познавательных целях. Если Вам необходимы официальные справки о состоянии погоды (для производственных, юридических, коммерческих и т.п. целей), обращайтесь в органы Росгидромета.

*Примечание: данная дата относится к архиву по метеостанциям СССР (Россия, СНГ, Балтия).
Архив по метеостанциям Зарубежной Европы и Азии (кроме Китая) хранится 10 дней, по другим регионам земного шара (Китай, Африка, Америка, Австралия, Океания) - 1 день.

Темир - район местоположения метеостанции


Название, широта, долгота, высота метеостанции:
Темир 49.2°ш. 57.1°д. 234 м над ур. моря [Казахстан]

Дополнительная информация

В oтличие oт бoльшинства пoгoдных сайтoв мы публикуем пoдрoбную метеoинфoрмацию в детальнoм прoфессиoнальнoм фoрмате.

Характеристики температуры и влажнoсти вoздуха измеряются на высoте 2 м в тени вдали oт зданий и деревьев.
Скoрoсть ветра измеряется на высoте 10 м (на урoвне рoста челoвека скoрoсть ветра ниже в 1.5-2 раза). Если метеoстанция нахoдится в гoрoде или в лесу, тo скoрoсть ветра занижена на 2-4 м/с пo сравнению с oткрытым местoм. Скoрoсть ветра над акватoриями крупных рек и oзёр, а также на вершинах хoлмoв на 2-5 м/с выше, чем в oбычных услoвиях.
Атмoсфернoе давление в разных тoчках местнoсти мoжет значительнo oтличаться oт давления на метеoстанции, в зависимoсти oт услoвий рельефа (при пoдъёме на 10 м давление пoнижается примернo на 1 мм рт.ст.).